Tracking 25378 objects as of 22-Jan-2022
HD Live streaming from Space Station
objects crossing your sky now

STARLINK-2601

Track STARLINK-2601 now!
10-day predictions
STARLINK-2601 is classified as:


NORAD ID: 48384
Int'l Code: 2021-038AH
Perigee: 553.3 km
Apogee: 555.5 km
Inclination: 53.1 °
Period: 95.6 minutes
Semi major axis: 6925 km
RCS: Unknown
Launch date: May 4, 2021
Source: United States (US)
Launch site: AIR FORCE EASTERN TEST RANGE (AFETR)
aabbcc
Your satellite tracking list
Your tracking list is empty




NASA's NSSDC Master Catalog

Two Line Element Set (TLE):
1 48384U 21038AH  22021.45314883 -.00002353  00000-0 -13918-3 0  9994
2 48384  53.0545 282.3486 0001580  55.8664 304.2474 15.06391369 41060
Source of the keplerian elements: AFSPC